{"data":{"norad_id":64835,"intl_designator":"2025-151V","name":"KUIPER-00090","alt_names":[],"object_type":"PAYLOAD","status":"ACTIVE","operator":null,"country":"US","launch_date":"2025-07-16","launch_site_code":"AFETR","launch_vehicle":null,"mission":null,"orbit_class":"UNKNOWN","rcs_meters":null,"size_class":null,"mass_kg":null,"dimensions":null,"purposes":[],"wikipedia_slug":null,"has_3d_model":false,"image_url":null,"decayed_at":null,"tle_current":{"epoch":"2026-09-21T20:34:22.952640Z","epoch_age_seconds":54127,"freshness":"FRESH","line1":"1 64835U 25151V   26264.85721010  .00001756  00000+0  25935-3 0  9999","line2":"2 64835  51.8987 130.6365 0000913 104.2548 255.8516 14.79923122 64661","mean_motion":14.79923122,"eccentricity":9.13e-5,"inclination_deg":51.8987,"raan_deg":130.6365,"arg_perigee_deg":104.2548,"mean_anomaly_deg":255.8516,"bstar":0.00025935,"rev_number":6466,"period_min":97.302351628506,"perigee_km":628.92700838865,"apogee_km":630.20661510468,"semimajor_km":7007.7038117467,"source":"CELESTRAK","updated_at":"2026-09-22T09:00:29.978528Z"}}}